Location: ?ernice
(48.8383°N, 14.3803°E)
Time: 17:55:10
(UTC+00:00)

SL-16 R/B - Pass Details

Date: 23 May 2024
Orbit: 985 x 1006 km, 99.7° (Epoch: 13 June)

Event Time Altitude Azimuth Distance (km) Brightness Sun altitude
Rises 01:47:20 0° 170° (S) 3,719 5.2 -11.1°
Reaches altitude 10° 01:49:49 10° 173° (S) 2,775 4.5 -10.8°
Maximum altitude 01:56:02 69° 256° (WSW) 1,077 2.6 -10.1°
Drops below altitude 10° 02:02:19 10° 340° (NNW) 2,793 5.3 -9.4°
Sets 02:04:50 0° 343° (NNW) 3,746 6.0 -9.2°
